Sigfox identifier Datetime Temperature Humidity SNR
003B74BE 2018-10-09 09:04:50 20.9 44 22.9
003B74BE 2018-10-09 08:00:36 20.8 43 22.6
003B74BE 2018-10-09 06:56:22 20.8 42 22.3
003B74BE 2018-10-09 05:52:09 20.8 42 22.4
003B74BE 2018-10-09 04:47:55 20.8 41 22.4
003B74BE 2018-10-09 01:35:17 20.8 40 22.1
003B74BE 2018-10-09 00:31:04 20.9 39 22.2
003B74BE 2018-10-08 23:26:51 20.9 39 22.2
003B74BE 2018-10-08 22:22:39 20.9 38 22.1
003B74BE 2018-10-08 21:18:25 21 38 22.1
003B74BE 2018-10-08 20:14:12 21 38 22.4
003B74BE 2018-10-08 19:09:57 21 38 22.4
003B74BE 2018-10-08 18:05:42 21.2 37 22.5
003B74BE 2018-10-08 17:01:28 21.1 37 22.4
003B74BE 2018-10-08 15:57:14 21 37 22.4
003B74BE 2018-10-08 14:52:59 21 36 22.7
003B74BE 2018-10-08 13:48:43 20.9 36 22.7
003B74BE 2018-10-08 12:44:27 20.8 36 23
003B74BE 2018-10-08 11:40:16 20.8 36 22.9
003B74BE 2018-10-08 10:35:58 20.6 30 22.9
003B74BE 2018-10-08 09:31:44 20.4 29 23.3
003B74BE 2018-10-08 08:27:29 20.4 30 23.3
003B74BE 2018-10-08 07:23:14 20.3 31 23.4
003B74BE 2018-10-08 06:19:00 20.3 32 24
003B74BE 2018-10-08 05:14:43 20.3 32 24.1
003B74BE 2018-10-08 04:10:27 20.3 33 24.1
003B74BE 2018-10-08 03:06:11 20.3 33 24.1
003B74BE 2018-10-08 02:01:59 20.4 34 24
003B74BE 2018-10-08 00:57:43 20.4 34 24.2
003B74BE 2018-10-07 23:53:29 20.4 35 24.3
003B74BE 2018-10-07 22:49:12 20.4 36 24.3
003B74BE 2018-10-07 21:44:54 20.4 36 24.2
003B74BE 2018-10-07 20:40:37 20.5 37 24.3
003B74BE 2018-10-07 19:36:21 20.6 37 24.2
003B74BE 2018-10-07 18:32:04 20.6 37 24.4
003B74BE 2018-10-07 17:27:47 20.6 37 24.5
003B74BE 2018-10-07 16:23:29 20.4 37 24.7
003B74BE 2018-10-07 15:19:12 20.4 37 24.9
003B74BE 2018-10-07 14:14:54 20.4 37 24.9
003B74BE 2018-10-07 13:10:38 20.4 37 25
003B74BE 2018-10-07 12:06:20 20.4 37 25.1
003B74BE 2018-10-07 11:02:03 20.4 37 25.1
003B74BE 2018-10-07 09:57:48 20.4 37 25.2
003B74BE 2018-10-07 08:53:29 20.6 38 25.3
003B74BE 2018-10-07 07:49:11 20.5 38 25.4
003B74BE 2018-10-07 06:44:52 20.5 38 25.3
003B74BE 2018-10-07 05:40:35 20.6 38 25.4
003B74BE 2018-10-07 04:36:17 20.6 38 25.5
003B74BE 2018-10-07 03:32:01 20.6 39 25.1
003B74BE 2018-10-07 02:27:42 20.6 39 25.2
003B74BE 2018-10-07 01:23:23 20.6 39 25.2
003B74BE 2018-10-07 00:19:05 20.6 39 25.4
003B74BE 2018-10-06 23:14:45 20.6 39 25.4
003B74BE 2018-10-06 22:10:27 20.6 39 25.5
003B74BE 2018-10-06 21:06:10 20.6 39 25.5
003B74BE 2018-10-06 20:01:52 20.7 39 25.6
003B74BE 2018-10-06 18:57:36 20.7 39 25.6
003B74BE 2018-10-06 17:53:19 20.8 39 25.6
003B74BE 2018-10-06 16:49:01 20.8 39 25.8
003B74BE 2018-10-06 15:44:46 20.8 39 25.7
003B74BE 2018-10-06 14:40:29 20.8 39 25.6
003B74BE 2018-10-06 13:36:12 20.8 39 25.6
003B74BE 2018-10-06 12:31:53 20.7 39 25.5
003B74BE 2018-10-06 11:27:37 20.7 39 25.5
003B74BE 2018-10-06 10:23:17 20.8 39 25.5
003B74BE 2018-10-06 09:18:59 20.7 39 25.4
003B74BE 2018-10-06 08:14:41 20.7 39 25.5
003B74BE 2018-10-06 07:10:22 20.8 39 25.3
003B74BE 2018-10-06 06:06:05 20.8 40 25.4
003B74BE 2018-10-06 05:01:46 20.8 40 25.4
003B74BE 2018-10-06 03:57:28 20.8 40 25.5
003B74BE 2018-10-06 02:53:09 20.9 41 25.3
003B74BE 2018-10-06 01:48:49 21 41 25.3
003B74BE 2018-10-06 00:44:31 21 41 25.4
003B74BE 2018-10-05 23:40:12 21 42 25.2
003B74BE 2018-10-05 22:35:56 21.1 42 25.5
003B74BE 2018-10-05 21:31:37 21.2 43 25.6
003B74BE 2018-10-05 20:27:19 21.3 43 26.1
003B74BE 2018-10-05 19:23:01 21.4 44 25.4
003B74BE 2018-10-05 18:18:42 21.7 44 25.1
003B74BE 2018-10-05 17:14:25 21.9 44 0